This demonstration page uses our WeatherBlox Daily Observations layout. Learn more.

Left ArrowRight Arrow

38.80484, -77.04692

Hourly Observations for February 20, 2016

Temp ( °F °C ) Dew Point ( °F °C ) Humidity (%) Winds ( mph kmh ) Pressure ( in mb ) Visibility ( mi km ) Precip ( " mm )
12:00 am 00:00 Partly Cloudy 39 4 27 -3 61 61 S 16 26 30.12 1020 10 16 0.00 0.00
12:16 am 00:16 Mostly Clear 39 4 27 -3 61 61 S 16 26 30.12 1020 10 16 0.00 0.00
12:52 am 00:52 Mostly Cloudy 41 5 27 -2.8 57 57 S 14 22 30.09 1019 10 16 0.00 0.00
1:52 am 01:52 Mostly Cloudy 41 5 27 -2.8 57 57 S 16 26 30.06 1018 10 16 0.00 0.00
2:52 am 02:52 Partly Cloudy 45 7.2 26 -3.3 48 48 SSW 18 30 30.04 1017 10 16 0.00 0.00
3:52 am 03:52 Partly Cloudy 46 7.8 28 -2.2 50 50 SSW 16 26 30.04 1017 10 16 0.00 0.00
4:52 am 04:52 Mostly Cloudy 44 6.7 28 -2.2 53 53 SSW 9 15 30.05 1018 10 16 0.00 0.00
5:52 am 05:52 Cloudy 44 6.7 29 -1.7 55 55 SSW 7 11 30.06 1018 10 16 0.00 0.00
6:52 am 06:52 Mostly Cloudy 44 6.7 30 -1.1 58 58 S 9 15 30.06 1018 10 16 0.00 0.00
7:52 am 07:52 Mostly Cloudy 43 6.1 32 0 65 65 S 9 15 30.08 1019 10 16 0.00 0.00
8:23 am 08:23 Mostly Cloudy 45 7.2 32 0 61 61 S 8 13 30.09 1019 10 16 0.00 0.00
8:52 am 08:52 Mostly Cloudy 45 7.2 33 0.6 63 63 S 8 13 30.09 1019 10 16 0.00 0.00
9:52 am 09:52 Mostly Cloudy 46 7.8 33 0.6 61 61 S 10 17 30.07 1018 10 16 0.00 0.00
10:52 am 10:52 Mostly Cloudy 49 9.4 35 1.7 59 59 S 10 17 30.07 1018 10 16 0.00 0.00
11:52 am 11:52 Mostly Cloudy 51 10.6 36 2.2 56 56 S 10 17 30.04 1017 10 16 0.00 0.00
12:52 pm 12:52 Mostly Cloudy 57 13.9 37 2.8 47 47 S 8 13 30.01 1016 10 16 0.00 0.00
1:52 pm 13:52 Mostly Cloudy 58 14.4 38 3.3 48 48 S 14 22 29.96 1015 10 16 0.00 0.00
2:52 pm 14:52 Mostly Cloudy 56 13.3 38 3.3 51 51 S 13 20 29.94 1014 10 16 0.00 0.00
3:52 pm 15:52 Partly Cloudy 61 16.1 39 3.9 44 44 S 10 17 29.92 1013 10 16 0.00 0.00
4:52 pm 16:52 Mostly Sunny 63 17.2 38 3.3 40 40 SSW 15 24 29.91 1013 10 16 0.00 0.00
5:52 pm 17:52 Mostly Clear 55 12.8 37 2.8 51 51 S 12 19 29.91 1013 10 16 0.00 0.00
6:52 pm 18:52 Clear 54 12.2 37 2.8 53 53 S 13 20 29.91 1013 10 16 0.00 0.00
7:52 pm 19:52 Clear 51 10.6 37 2.8 59 59 SSW 10 17 29.92 1013 10 16 0.00 0.00
8:52 pm 20:52 Clear 51 10.6 39 3.9 64 64 S 9 15 29.93 1014 10 16 0.00 0.00
9:52 pm 21:52 Clear 50 10 39 3.9 66 66 SSW 6 9 29.93 1014 10 16 0.00 0.00
10:52 pm 22:52 Clear 49 9.4 41 5 74 74 S 8 13 29.93 1014 10 16 0.00 0.00
11:52 pm 23:52 Clear 50 10 42 5.6 74 74 S 10 17 29.93 1014 10 16 0.00 0.00

Powered by AerisWeather